Regional Weather Roundup
Issued by NWS New Orleans/Baton Rouge, LA

Home | Current Version | Previous Version | Text Only | Print | Product List | Glossary Off
Versions: 1 2 3 4 5 6 7 8 9 10 11 12 13 14 15 16 17 18 19 20 21 22 23 24 25 26 27 28 29 30 31 32 33 34 35 36 37 38 39 40 41 42 43 44 45 46 47 48 49 50

242
ASUS44 KLIX 252111
RWRLIX
NEW ORLEANS REGIONAL WEATHER ROUNDUP
NATIONAL WEATHER SERVICE NEW ORLEANS LA
400 PM CDT WED MAR 25 2015

NOTE: "FAIR" INDICATES FEW OR NO CLOUDS BELOW 12,000 FEET WITH NO
      SIGNIFICANT WEATHER AND/OR OBSTRUCTIONS TO VISIBILITY.
      SKY/WX - SKY CONDITION AND SIGNIFICANT WEATHER.
      TMP - AIR TEMPERATURE.     DP    - DEWPOINT TEMPERATURE.
      RH  - RELATIVE HUMIDITY.   PRES  - PRESSURE.
      HI  - HEAT INDEX.          WCI   - WIND CHILL INDEX.

*  THESE STATIONS ARE NOT NWS OR FAA STATIONS AND ARE NOT UNDER
   NWS QUALITY CONTROL.

LAZ038-040-048-061>063-065>067-069-252200-
SOUTHEAST LOUISIANA

CITY           SKY/WX    TMP DP  RH WIND       PRES   REMARKS
N.O. AUDUBON     N/A     78  61  55 MISG        N/A
N.O. INTL ARPT PTSUNNY   77  59  53 NE6       30.01F
N.O. LAKEFRONT   N/A     77  60  55 NE8       30.02F
SLIDELL          N/A     78  57  48 S10       30.00F
BATON ROUGE      N/A     79  57  46 E10       29.99F
BOOTHVILLE       N/A     75  61  61 E7        30.03F
BELLE CHASSE   PTSUNNY   77  57  50 SE8       30.01F
BOGALUSA*        N/A     80  56  43 S8        30.01F
GALLIANO*        N/A     78  59  50 MISG      30.03S
NEW ROADS*       N/A     77  56  47 SE6       29.99F
GONZALES*      CLOUDY    77  59  54 CALM      30.00F
HAMMOND*         N/A     79  50  36 SE12      30.02F
HOUMA*         MOSUNNY   77  57  50 S5        30.02F
PORT FOURCHON* CLEAR     73  61  64 E13       30.05F

$$

MSZ070-080>082-252200-
SOUTHERN MISSISSIPPI

CITY           SKY/WX    TMP DP  RH WIND       PRES   REMARKS
MCCOMB           N/A     78  55  44 VRB7      30.00F
GULFPORT         N/A     73  63  70 SE14      30.03S
BILOXI           N/A     74  65  73 S10       30.03F
PASCAGOULA       N/A     74  63  68 S12       30.04F
STENNIS ARPT*  MOSUNNY   75  52  43 SE7       30.02F

$$

COASTAL OBSERVATIONS
LAKE AND NEARSHORE STATIONS

STATION/POSITION TIME  TEMP    WIND        PRES    WAVE
                       AIR SEA DIR/SP/G            HT/PER
                 (UTC) (F)     (DEG/KT/KT) (MB)    (FT/S)
PASCAGOULA       2000   74     130/  7/ 14 1017.2
WAVELAND YACHT   2000   70 70  150/  9/ 10 1017.2
GRAND ISLE       2000   74 72  100/  6/  9 1016.9
SOUTHWEST PASS   2000   75 52  100/ 12/ 12 1017.6
NEW CANAL        2000   70      10/  7/  9 1017.2
SHELL BEACH      2000   72 73   30/  8/  8 1016.9

OFFSHORE STATIONS

STATION/POSITION TIME  TEMP    WIND        PRES    WAVE
                       AIR SEA DIR/SP/G            HT/PER
                 (UTC) (F)     (DEG/KT/KT) (MB)    (FT/S)
64 S DAUPHIN ISL 2050   73 77  130/  8/ 10 1017.4    2/ 5

$$




USA.gov is the U.S. government's official web portal to all federal, state and local government web resources and services.